DELTA 1 DEB (YO), 167

Orbit data source: Space-Track

DELTA 1 DEB (YO), 167 is space debris in LEO originally from a launch on Wed, 12 Jul 1961 UTC launched from the Air Force Eastern Test Range (AFETR). Debris objects in space refer to the collection of defunct objects orbiting the Earth. Examples of debris include non-operational satellites, rocket bodies, and fragments generated from explosions, collisions, or faulty payload assembly.

Loading next visibility...
Identifier
167, 1961-017D
Orbit
LEO
Country
Flag of USUS
Related business
Manufacturer
RCA/East Windsor
Mission
Spacecraft
Bus & Motor
Unknown
Mass
~1 kg wet, ~1 kg dry
Launch date (UTC)
1961-07-12 (64 years ago)
Launch vehicle
Unknown
Launch site
Air Force Eastern Test Range (AFETR)
Object type
Payload
Rocket body
Debris
Shape & HBR
Unknown shape, 0.1 m
Radar Cross Section
Small (<0.1 m²)

Expand to show TLE details & history
Last TLE update: 20 hours ago

TLE from 20 hours ago
0 DELTA 1 DEB (YO)
1 00167U 61017D   25288.73185534  .00000325  00000-0  19776-3 0  9993
2 00167  47.8463  43.2645 0090688 190.4712 169.4284 14.24015595329832
Epoch: 2025-10-15T17:33Z
TLE epoch observation values (Epoch: 2025-10-15T17:33:52.301Z)
Latitude
0.00001°
Longitude
115.29487°
Altitude
876.218 km
Speed
7.382 km/s
True Right ascension
02h 53m 03s
True Declination
0° 00' 00"
Sunlit
Object was in full shadow at epoch
Visualization orbit readout
Latitude
Unknown
Longitude
Unknown
Altitude
Unknown
Speed
Unknown
Apparent Right ascension
Unknown
Apparent Declination
Unknown
Sunlit
N/A
Visualization observer readout
Local Sidereal Time
08:21:04
Azimuth
Unknown
Elevation
Unknown
Doppler factor
Unknown
Orbital elements
Apogee altitude
878.099 km
Perigee altitude
747.671 km
Semi-major axis
7,191.022 km
Eccentricity
0.00907
Inclination
47.8463°
RAAN
43.2645°
Arg. of periapsis
190.4712°
True anomaly
169.61695°
Mean anomaly
169.4284°
Eccentric anomaly
169.52289°
Mean motion
3.55924 °/min
Orbital period
101.15 mins
BSTAR
0.00019776
Loading maneuver chart data...
Computing Atmospheric mass density...
Loading historical data...
Loading historical data...
Loading historical data...
Loading historical data...
Loading historical data...
Loading historical data...
Loading historical data...
Other satellites on launch #17 in the year 1961 (1961-07-12 UTC)

Documentation

Showing up to 5 results
|